Location: Ar Ranvel
(48.3000°N, 4.8833°W)
Time: 18:36:41
(UTC+00:00)

Cosmos 2322 Rocket - Pass Details

Date: 31 October 2021
Orbit: 832 x 851 km, 71.0° (Epoch: 27 November)

Event Time Altitude Azimuth Distance (km) Brightness Sun altitude
Rises 18:01:28 0° 220° (SW) 3,367 6.2 -10.4°
Reaches altitude 10° 18:03:57 10° 225° (SW) 2,438 5.5 -10.8°
Maximum altitude 18:09:25 55° 303° (WNW) 999 2.9 -11.7°
Drops below altitude 10° 18:14:58 10° 21° (NNE) 2,461 4.3 -12.6°
Sets 18:17:29 0° 26° (NNE) 3,402 5.0 -13.0°
